Weather History for KVOK - February, 2013

Change the Weather History Date:

Saturday, February 2, 2013

  Actual Average Record
Temperature  
Mean Temperature 4 °F -  
Max Temperature 10 °F 26 °F 46 °F (2006)
Min Temperature -3 °F 15 °F -16 °F (2014)
Degree Days  
Heating Degree Days 62    
Moisture  
Dew Point -1 °F    
Average Humidity 76    
Maximum Humidity 86    
Minimum Humidity 57    
Precipitation  
Precipitation 0.00 in - - ()
Snow  
Snow 0.00 in - - ()
Snow Depth 9.00 in    
Sea Level Pressure  
Sea Level Pressure 30.08 in    
Wind  
Wind Speed 4 mph (WSW)    
Max Wind Speed 7 mph    
Max Gust Speed -    
Visibility 9 miles    
Events Snow    
Averages and records for this station are not official NWS values.
T = Trace of Precipitation, MM = Missing Value Source: NWS Daily Summary

Daily Weather History Graph

Daily Weather History Graph

Search for Another Location

Airport or City:

Trip Planner

Search our weather history database for the weather conditions in past years. The results will help you decide how hot, cold, wet, or windy it might be!

Date:

Astronomy

Feb. 02, 2013 Rise Set
Actual Time 7:16 AM CST 5:13 PM CST
Civil Twilight 6:46 AM CST 5:43 PM CST
Nautical Twilight 6:11 AM CST 6:18 PM CST
Astronomical Twilight 5:38 AM CST 6:52 PM CST
Moon No Moon Rise 10:11 AM CST (2/2)
Length of Visible Light 10h 57m
Length of Day
9h 56m
Waning Gibbous, 59% of the Moon is Illuminated
Feb 2
Waning Gibbous
Feb 3
Last Quarter
Feb 10
New
Feb 17
First Quarter
Feb 25
Full

Hourly Weather History & Observations

Time (CST) Temp. Windchill Dew Point Humidity Pressure Visibility Wind Dir Wind Speed Gust Speed Precip Events Conditions
8:08 AM 3.2 °F -6.2 °F -0.4 °F 85% 30.10 in 7.0 mi NNW 4.6 mph - N/A Snow Light Snow
8:47 AM 5.0 °F -5.6 °F -2.2 °F 72% 30.10 in 10.0 mi NNW 5.8 mph - N/A Snow Light Snow
8:55 AM 5.0 °F -5.6 °F -2.2 °F 72% 30.17 in 10.0 mi NNW 5.8 mph - N/A Snow Light Snow
9:38 AM 5.0 °F -5.6 °F -2.2 °F 72% 30.10 in 10.0 mi NNW 5.8 mph - N/A   Scattered Clouds
9:55 AM 6.8 °F -4.8 °F -0.4 °F 72% 30.18 in 10.0 mi NNW 6.9 mph - N/A   Mostly Cloudy
10:55 AM 8.6 °F 0.1 °F -0.4 °F 67% 30.18 in 10.0 mi North 4.6 mph - N/A   Mostly Cloudy
11:55 AM 10.4 °F 4.0 °F -2.2 °F 57% 30.16 in 10.0 mi Variable 3.5 mph - N/A   Mostly Cloudy
12:55 PM 10.4 °F 0.8 °F -0.4 °F 62% 30.15 in 10.0 mi WSW 5.8 mph - N/A   Mostly Cloudy
1:55 PM 8.6 °F 0.1 °F -0.4 °F 67% 30.14 in 10.0 mi WSW 4.6 mph - N/A   Mostly Cloudy
2:55 PM 10.4 °F 4.0 °F -2.2 °F 57% 30.13 in 10.0 mi WSW 3.5 mph - N/A   Mostly Cloudy
3:25 PM 10.4 °F 0.8 °F -2.2 °F 57% 30.06 in 10.0 mi West 5.8 mph - N/A   Mostly Cloudy
3:55 PM 8.6 °F -1.3 °F -2.2 °F 62% 30.13 in 10.0 mi West 5.8 mph - N/A   Mostly Cloudy
4:55 PM 7.9 °F -0.7 °F -1.3 °F 66% 30.13 in 10.0 mi West 4.6 mph - N/A   Mostly Cloudy
5:55 PM 9.0 °F 2.4 °F 0.7 °F 69% 30.12 in 10.0 mi South 3.5 mph - N/A   Overcast
6:55 PM 4.5 °F -4.7 °F -2.7 °F 72% 30.12 in 10.0 mi SW 4.6 mph - N/A   Clear
7:55 PM -3.1 °F -11.4 °F -6.3 °F 86% 30.11 in 10.0 mi East 3.5 mph - N/A   Clear
8:55 PM -1.7 °F - -5.6 °F 83% 30.08 in 10.0 mi Calm Calm - N/A   Overcast
9:55 PM 2.5 °F -5.0 °F -1.1 °F 85% 30.06 in 10.0 mi SSE 3.5 mph - N/A   Mostly Cloudy
10:16 PM 5.0 °F - 1.4 °F 85% 30.06 in 10.0 mi Calm Calm - N/A Snow Light Snow
10:29 PM 6.8 °F - 1.4 °F 79% 30.05 in 8.0 mi Calm Calm - N/A Snow Light Snow
10:32 PM 6.8 °F - 1.4 °F 79% 30.05 in 7.0 mi Calm Calm - N/A Snow Light Snow
10:38 PM 6.8 °F -0.1 °F 1.4 °F 79% 30.05 in 7.0 mi South 3.5 mph - N/A Snow Light Snow
10:52 PM 6.8 °F -0.1 °F 1.4 °F 79% 30.04 in 7.0 mi South 3.5 mph - N/A Snow Light Snow
10:55 PM 5.7 °F -1.3 °F 0.9 °F 80% 30.04 in 7.0 mi SSE 3.5 mph - 0.00 in Snow Light Snow
10:57 PM 5.0 °F - 1.4 °F 85% 30.04 in 8.0 mi Calm Calm - N/A   Overcast
11:01 PM 5.0 °F - 1.4 °F 85% 30.04 in 9.0 mi Calm Calm - N/A   Overcast
11:02 PM 5.0 °F - 1.4 °F 85% 30.04 in 9.0 mi Calm Calm - N/A Snow Light Snow
11:03 PM 5.0 °F - 1.4 °F 85% 30.04 in 9.0 mi Calm Calm - N/A Snow Light Snow
11:11 PM 3.2 °F - -0.4 °F 85% 30.04 in 8.0 mi Calm Calm - N/A Snow Light Snow
11:14 PM 3.2 °F - -2.2 °F 78% 30.04 in 9.0 mi Calm Calm - N/A   Overcast
11:21 PM 3.2 °F - -0.4 °F 85% 30.04 in 10.0 mi Calm Calm - N/A   Overcast
11:28 PM 5.0 °F - 1.4 °F 85% 30.03 in 9.0 mi Calm Calm - N/A Snow Light Snow
11:44 PM 3.2 °F - -0.4 °F 85% 30.03 in 7.0 mi Calm Calm - N/A   Overcast
11:55 PM 1.4 °F - -2.2 °F 85% 30.03 in 7.0 mi Calm Calm - 0.00 in   Overcast